Location: Handeloh
(53.2500°N, 9.8330°E)
Time: 02:58:43
(UTC+01:00)

A-11 Canister half - Visible Passes

Search period start: 18 January 2021 00:00
Search period end: 28 January 2021 00:00
Orbit: 1524 x 1684 km, 47.3° (Epoch: 17 January)

Date Brightness Start Highest point End Pass type
(mag) Time Alt. Az. Time Alt. Az. Time Alt. Az.
18 Jan 9.5 17:39:51 10° SW 17:48:55 53° SSE 17:57:54 11° E visible
18 Jan 9.2 19:43:48 10° W 19:53:13 62° S 19:56:12 46° SE visible
18 Jan 10.0 21:48:23 10° W 21:54:30 36° WSW 21:54:30 36° WSW visible
19 Jan 9.6 17:18:17 10° SW 17:27:18 52° SSE 17:36:38 10° E visible
19 Jan 9.2 19:22:11 10° W 19:31:34 62° S 19:35:49 37° ESE visible
19 Jan 9.8 21:26:44 10° W 21:34:08 42° SW 21:34:08 42° SW visible
20 Jan 9.3 19:00:34 10° W 19:09:56 62° S 19:15:28 29° ESE visible
20 Jan 9.6 21:05:06 10° W 21:13:46 46° SSW 21:13:46 46° SSW visible
20 Jan 11.0 23:10:47 10° W 23:12:05 13° W 23:12:05 13° W visible
21 Jan 9.3 18:38:57 10° W 18:48:18 62° S 18:55:09 22° ESE visible
21 Jan 9.5 20:43:28 10° W 20:52:30 47° SSW 20:53:27 46° S visible
21 Jan 10.9 22:49:00 10° W 22:51:46 17° WSW 22:51:46 17° WSW visible
22 Jan 9.3 18:17:21 10° WSW 18:26:39 62° S 18:34:52 15° ESE visible
22 Jan 9.5 20:21:49 10° W 20:30:52 48° SSW 20:33:11 42° S visible
22 Jan 10.7 22:27:16 10° W 22:31:29 20° WSW 22:31:29 20° WSW visible
23 Jan 9.4 17:55:44 10° WSW 18:05:01 62° S 18:14:38 10° ESE visible
23 Jan 9.6 20:00:11 10° W 20:09:15 49° SSW 20:12:56 35° SSE visible
23 Jan 10.5 22:05:32 10° W 22:11:16 23° WSW 22:11:16 23° WSW visible
24 Jan 9.4 17:34:07 10° WSW 17:43:23 62° S 17:52:58 10° ESE visible
24 Jan 9.6 19:38:34 10° W 19:47:38 50° SSW 19:52:46 28° SE visible
24 Jan 10.4 21:43:49 10° W 21:51:03 24° SW 21:51:05 24° SW visible
25 Jan 9.6 19:16:55 10° W 19:26:00 51° SSW 19:32:40 21° SE visible
25 Jan 10.3 21:22:06 10° W 21:29:29 25° SW 21:30:59 24° SSW visible
26 Jan 9.6 18:55:18 10° W 19:04:23 52° SSW 19:12:38 14° SE visible
26 Jan 10.4 21:00:24 10° W 21:07:54 26° SW 21:10:59 23° SSW visible
27 Jan 9.6 18:33:40 10° W 18:42:46 53° SSW 18:52:09 10° SE visible
27 Jan 10.4 20:38:42 10° W 20:46:19 27° SW 20:51:04 19° S visible
